www.pogodaiklimat.ru

Погода и климат >> Архив погоды >> Мексика >> Merida


АРХИВ ПОГОДЫ в Merida

Время (UTC), дата Ветер
(напр.,м/с)
 
Видим.   Явления Облачность Т
(С)
Тd
(С)
f
(%)
Тe
(С)
Тes
(С)
Комфортность P
(гПа)
Po
(гПа)
Тmin
(С)
Tmax
(С)
R
(мм)
R24
(мм)
S
(см)
18 12.09 ЮЗ 2 10 км 6/3 600 м
[Cu hum Ac trans Ci fib]
+33.1 +23.2 56 +44 +55 опасность
перегрева
1011.0 1009.7 +22.5 +33.1
21 12.09 С 2 10 км слабая морось 8/5 300 м
[Cb calv As op]
+30.1 +25.6 77 +44 +47 опасность
перегрева
1009.7 1008.4 3
00 13.09 З 1 10 км слабая морось 9/0 2000 м
[As op Cs]
+26.8 +25.4 92 +39 +39 очень
душно
1010.4 1009.2 4
03 13.09 штиль 0 5000 м {морось} 6/0 2000 м
[As op Cs]
+25.5 +25.1 98 +37 +37 очень
душно
1011.8 1010.5 0.0
06 13.09 Ю 1 5000 м {морось} 5/0 2000 м
[Ac trans]
+24.7 +24.3 98 +34 +34 очень
душно
1011.9 1010.6 0.0
09 13.09 Ю 1 5000 м 3/0
[Ci fib]
+23.9 +23.8 99 +32 +32 очень
душно
1010.7 1009.5
12 13.09 Ю 1 10 км 5/0 2000 м
[Ac trans Cs]
+23.3 +22.7 96 +32 +32 очень
душно
1011.6 1010.3 +23.3 +33.8
15 13.09 Ю 1 10 км мгла {туман} 3/1 600 м
[Cu hum Ci fib]
+29.2 +26.4 85 +45 +55 опасность
перегрева
1012.8 1011.5
18 13.09 ЮЗ 2 10 км 5/4 600 м
[Cu hum Ac trans]
+32.4 +26.6 72 +50 +60 опасность
перегрева
1011.7 1010.4 +23.3 +32.4
21 13.09 ЮЗ 2 10 км 6/5 300 м
[Cb calv Ac trans]
+32.1 +27.8 78 +52 +56 опасность
перегрева
1009.7 1008.4
00 14.09 С 3 10 км 9/4 600 м
[Cu hum Ac trans Ci fib]
+28.4 +26.7 91 +44 +44 опасность
перегрева
1010.7 1009.4 +23.3 +34.7
03 14.09 С 1 5000 м {морось} 1/1 600 м
[Cu hum]
+26.6 +25.9 96 +40 +40 очень
душно
1012.1 1010.9 0.2
06 14.09 ЮВ 1 5000 м {морось} 3/0 2000 м
[Ac trans]
+26.0 +25.6 98 +38 +38 очень
душно
1012.4 1011.1 0.2
09 14.09 ЮЗ 1 5000 м 1/1 600 м
[Cu hum]
+24.6 +24.3 98 +34 +34 очень
душно
1011.5 1010.2
12 14.09 ЮВ 1 10 км 9/0 2000 м
[Ac cast Cs]
+24.3 +23.9 98 +33 +33 очень
душно
1012.5 1011.2 +24.1 +34.7
15 14.09 Ю 2 10 км 5/3 600 м
[Cu hum Ac trans Ci fib]
+30.8 +27.0 80 +48 +54 опасность
перегрева
1013.3 1012.1
18 14.09 ЮВ 2 10 км 6/4 600 м
[Cu hum Ac trans Ci fib]
+33.4 +29.1 78 +57 +67 опасность
перегрева
1012.0 1010.8 +24.1 +33.4
21 14.09 ЮЗ 3 10 км слабая морось 9/5 600 м
[Cu hum Ac trans]
+27.6 +25.6 89 +41 +43 опасность
перегрева
1010.4 1009.1 0.3
00 15.09 СВ 3 10 км {морось} 9/6 300 м
[Sc Ac trans]
+26.8 +23.9 84 +37 +37 очень
душно
1011.2 1010.0 0.5
03 15.09 В 2 5000 м слабая морось 5/1 600 м
[Cu hum As op]
+26.2 +24.9 93 +37 +37 очень
душно
1012.5 1011.3 0.0
06 15.09 В 3 5000 м слабая морось 8/6 600 м
[St As op]
+25.4 +24.8 96 +36 +36 очень
душно
1012.6 1011.3 0.1
09 15.09 В 2 5000 м {морось} 8/8 600 м
[St]
+25.4 +24.8 96 +36 +36 очень
душно
1010.8 1009.5 0.0
12 15.09 ЮВ 2 10 км {морось} 10/1 2000 м
[Frnb As trans Cs]
+25.1 +24.2 95 +35 +35 очень
душно
1012.5 1011.3 0.0
15 15.09 ЮВ 2 10 км 9/1 600 м
[Cu med, cong As trans]
+28.4 +25.6 85 +42 +46 опасность
перегрева
1013.6 1012.4
18 15.09 ЮВ 3 10 км 9/3 600 м
[Cu med, cong Ac trans Ci fib]
+32.2 +29.1 84 +56 +63 опасность
перегрева
1011.9 1010.6 +25.1 +32.2
21 15.09 Ю 2 10 км 9/4 600 м
[Cu hum Ac trans]
+33.7 +30.0 81 +61 +63 опасность
перегрева
1009.9 1008.6
00 16.09 С 1 10 км 8/3 600 м
[Cu med, cong As op]
+29.4 +26.2 83 +45 +45 опасность
перегрева
1010.7 1009.4 +25.1 +33.7
03 16.09 В 2 5000 м зарница {морось} 4/1 600 м
[Cb cap Ac trans]
+26.6 +24.6 89 +38 +38 очень
душно
1012.3 1011.0 0.1
06 16.09 штиль 0 5000 м слабая морось 6/1 600 м
[Sc As op]
+25.4 +25.1 98 +36 +36 очень
душно
1013.1 1011.9 1
09 16.09 В 1 5000 м {морось} 4/0 2000 м
[Ac As]
+25.6 +25.2 98 +37 +37 очень
душно
1011.5 1010.2 1
12 16.09 СВ 2 10 км 8/1 600 м
[Cu hum Ac cuf Cs]
+25.4 +25.1 98 +36 +36 очень
душно
1013.0 1011.8 1
15 16.09 ЮВ 3 10 км 8/1 600 м
[Cu hum Ac trans Cc]
+30.2 +25.8 77 +45 +49 опасность
перегрева
1014.3 1013.1
18 16.09 Ю 3 10 км 6/5 600 м
[Cu hum Ac trans]
+34.3 +26.9 65 +52 +59 опасность
перегрева
1013.1 1011.8 +25.2 +34.5
21 16.09 Ю 2 10 км 5/5 600 м
[Cu hum]
+35.9 +28.7 67 +59 +64 опасность
перегрева
1011.1 1009.8
00 17.09 СВ 4 10 км 6/3 600 м
[Cu hum Ac und]
+30.2 +25.7 77 +45 +45 опасность
перегрева
1011.9 1010.7 +25.4 +36.3
03 17.09 СВ 12 5000 м 3/0
[Ci fib]
+28.0 +25.5 86 +41 +41 опасность
перегрева
1013.6 1012.4
12 17.09 В 2 10 км 6/0 2000 м
[Ac trans Ci fib]
+25.8 +25.2 96 +37 +37 очень
душно
1013.4 1012.2 +25.6 +36.3
15 17.09 В 2 10 км 3/1 600 м
[Cu hum Ci fib]
+30.5 +28.2 88 +51 +60 опасность
перегрева
1014.6 1013.3
18 17.09 С 2 10 км 6/6 600 м
[Cu med, cong]
+34.0 +27.2 68 +53 +61 опасность
перегрева
1014.0 1012.8 +25.6 +34.0
21 17.09 СВ 3 10 км 5/5 600 м
[Cu med, cong]
+35.1 +26.2 60 +51 +55 опасность
перегрева
1011.5 1010.3
00 18.09 В 4 10 км 4/1 600 м
[Cu hum Ci fib]
+30.4 +25.4 75 +45 +45 опасность
перегрева
1011.6 1010.3 +25.6 +35.3
03 18.09 В 3 10 км ясно +28.3 +25.3 84 +41 +41 опасность
перегрева
1013.7 1012.5
06 18.09 В 2 5000 м 1/1 600 м
[Cu hum]
+27.1 +25.6 92 +40 +40 очень
душно
1013.4 1012.1 +25.6 +35.3
09 18.09 В 2 5000 м ясно +26.4 +25.8 97 +39 +39 очень
душно
1012.4 1011.1
12 18.09 СВ 2 10 км 6/1 600 м
[Cb cap Cs]
+25.7 +25.3 98 +37 +37 очень
душно
1013.3 1012.1 +25.7 +35.3
15 18.09 ЮВ 2 10 км 4/4 600 м
[Cu hum]
+30.6 +27.0 81 +48 +54 опасность
перегрева
1014.5 1013.2
18 18.09 В 2 10 км 5/5 600 м
[Cu med, cong]
+34.2 +27.0 66 +52 +62 опасность
перегрева
1013.3 1012.1 +25.9 +34.3
21 18.09 С 2 10 км 9/9 600 м
[Cu med, cong]
+33.9 +25.7 62 +49 +50 опасность
перегрева
1010.4 1009.1
00 19.09 В 4 10 км 4/4 600 м
[Cb cap]
+30.5 +25.9 76 +45 +45 опасность
перегрева
1010.8 1009.5 +25.9 +36.0
03 19.09 В 2 5000 м 8/0 2000 м
[Ac trans]
+28.6 +25.8 85 +43 +43 опасность
перегрева
1013.5 1012.2
06 19.09 В 2 5000 м 3/1 600 м
[Cu hum Ac trans]
+26.5 +24.4 88 +37 +37 очень
душно
1013.3 1012.1 +25.7 +36.0
09 19.09 В 2 5000 м 1/0 2000 м
[Ac trans]
+26.5 +24.4 88 +37 +37 очень
душно
1012.4 1011.2
12 19.09 СВ 1 10 км 1/0
[Ci fib]
+25.5 +24.2 93 +35 +35 очень
душно
1013.2 1011.9 +25.5 +36.0

 

Местоположение метеостанции Merida (Мексика): широта 20.98 долгота -89.65 высота над уровнем моря 9 м.

В архиве по умолчанию представлена погода в Merida за последнюю неделю. Архивные данные за месяц целиком и за предыдущие месяцы, начиная с января 2011 года, Вы можете получить, выбрав интересующий диапазон дат из раскрывающегося списка и нажав кнопку "Ввод!".

Внимание! Время в таблицах - всемирное. Для получения местного времени необходимо прибавить поправку, которая в Merida равна -6 ч.

Смотрите также архив погоды в соседних городах и на ближайших метеорологических станциях:

Погода в Merida 2 (Мексика) (6 км)
Погода в Progreso (Мексика) (36 км)
Погода в Valladolid (Мексика) (154 км)
Погода в Campeche (Мексика) (157 км)
Погода в Felipe Carrillo Pue (Мексика) (231 км)
Погода в Chetumal (Мексика) (312 км)
Погода в Belize (Белиз) (409 км)
Погода в Flores (Гватемала) (452 км)
Погода в Villahermosa (Мексика) (479 км)
Погода в Cabo San Antonio (Куба) (497 км)

Пояснения к столбцам:

Ветер - указаны скорость ветра в м/с - средняя за 10 мин, порывы в срок и между сроками (в фигурных скобках) и направление, откуда дует ветер: С - северный, СВ - северо-восточный, В - восточный, ЮВ - юго-восточный, Ю - южный, ЮЗ - юго-западный, З - западный, СЗ - северо-западный.
Видимость - горизонтальная дальность видимости в метрах или километрах. При видимости от 1 до 10 км при отсутствии осадков обычно наблюдается дымка, при ухудшении видимости до 1 км и менее - туман. В сухую погоду видимость может ухудшаться дымом, пылью или мглою.
Явления - указаны атмосферные явления, наблюдавшиеся в срок или в последний час перед сроком; фигурными скобками обозначены явления, наблюдавшиеся между сроками (за 1-3 часа до срока); квадратными скобками обозначены град или гололедные отложения с указанием их диаметра в мм.
Облачность - указаны через наклонную черту общая и нижняя облачность в баллах и высота нижней границы облаков в метрах; квадратными скобками обозначены формы облаков: Ci - перистые, Cs - перисто-слоистые, Cc - перисто-кучевые, Ac - высококучевые, As - высокослоистые, Sc - слоисто-кучевые, Ns - слоисто-дождевые, Cu - кучевые, Cb - кучево-дождевые. Подробнее классификацию облаков см. в Атласе облаков (PDF).
T - Температура воздуха - температура, измеренная на высоте 2 м над землей.
Td - Температура точки росы - температура, при понижении до которой содержащийся в воздухе водяной пар достигнет насыщения.
f - Относительная влажность воздуха - влажноcть воздуха, измеренная на высоте 2 м над землей.
Te - Эффективная температура - температура, которую ощущает одетый по сезону человек в тени. Характеристика душности погоды. При расчете учитывается влияние влажности воздуха и скорости ветра на теплоощущения человека.
Tes - Эффективная температура на солнце - температура, которую ощущает человек, с поправкой на солнечный нагрев. Характеристика знойности погоды. Зависит от высоты солнца над горизонтом, облачности и скорости ветра. Ночью, в пасмурную погоду, а также при ветре 12 м/с и более поправка равна нулю.
P - Атмосферное давление - приведенное к уровню моря атмосферное давление.
Po - Атмосферное давление - измеренное на уровне метеостанции атмосферное давление.
Tmin - Минимальная температура - минимум температуры воздуха на высоте 2 м над землей.
Tmax - Максимальная температура - максимум температуры воздуха на высоте 2 м над землей.
R - Количество осадков - Количество выпавших осадков за период времени, мм. При наведении курсора мыши на число - период времени, за который выпало указанное количество осадков.
R24 - Количество осадков - Количество выпавших осадков за 24 часа, мм.
S - Снежный покров - Высота снежного покрова, см. При наведении курсора мыши на число - состояние снежного покрова и степень покрытия местности в баллах.